| time (UTC) | temp F | wind direction | speed MPH | gust MPH | rain 1hr in | rain 24hr in | rain mn in | humidity % | barometer mb |
| 20260505065537 | 74 | 158 | 6.0 | 15.0 | 0.00 | 0.00 | 0.00 | 76 | 1003.5 |
| 20260505064517 | 74 | 203 | 5.0 | 13.0 | 0.00 | 0.00 | 0.00 | 75 | 1003.7 |
| 20260505063517 | 75 | 158 | 6.0 | 12.0 | 0.00 | 0.00 | 0.00 | 75 | 1003.7 |
| 20260505062517 | 75 | 203 | 6.0 | 11.0 | 0.00 | 0.00 | 0.00 | 74 | 1003.8 |
| 20260505061517 | 75 | 180 | 5.0 | 13.0 | 0.00 | 0.00 | 0.00 | 73 | 1003.9 |
| 20260505060517 | 75 | 180 | 6.0 | 13.0 | 0.00 | 0.00 | 0.00 | 73 | 1003.9 |
| 20260505055517 | 76 | 180 | 6.0 | 13.0 | 0.00 | 0.00 | 0.00 | 72 | 1003.9 |
| 20260505054517 | 76 | 203 | 7.0 | 18.0 | 0.00 | 0.00 | 0.00 | 72 | 1003.8 |
| 20260505053517 | 76 | 180 | 5.0 | 13.0 | 0.00 | 0.00 | 0.00 | 72 | 1003.8 |
| 20260505052537 | 76 | 180 | 6.0 | 12.0 | 0.00 | 0.00 | 0.00 | 72 | 1003.8 |
| 20260505051517 | 76 | 203 | 5.0 | 10.0 | 0.00 | 0.00 | 0.00 | 73 | 1003.9 |
| 20260505050517 | 75 | 158 | 5.0 | 11.0 | 0.00 | 0.00 | 0.00 | 73 | 1003.8 |
| 20260505041516 | 75 | 158 | 6.0 | 13.0 | 0.00 | 0.00 | 0.00 | 74 | 1004.1 |
| 20260505040515 | 75 | 203 | 5.0 | 13.0 | 0.00 | 0.00 | 0.00 | 74 | 1004.2 |
| 20260505035515 | 75 | 158 | 5.0 | 11.0 | 0.00 | 0.00 | 0.00 | 73 | 1004.2 |
| 20260505034516 | 75 | 180 | 5.0 | 12.0 | 0.00 | 0.00 | 0.00 | 73 | 1004.3 |
| 20260505033516 | 75 | 158 | 5.0 | 10.0 | 0.00 | 0.00 | 0.00 | 73 | 1004.1 |
| 20260505032516 | 75 | 158 | 5.0 | 13.0 | 0.00 | 0.00 | 0.00 | 73 | 1004.2 |
| 20260505031515 | 76 | 180 | 6.0 | 12.0 | 0.00 | 0.00 | 0.00 | 72 | 1004.1 |
| 20260505030515 | 76 | 158 | 6.0 | 11.0 | 0.00 | 0.00 | 0.00 | 72 | 1004.1 |
| 20260505025516 | 76 | 158 | 7.0 | 13.0 | 0.00 | 0.00 | 0.00 | 72 | 1004.1 |
| 20260505024516 | 76 | 158 | 6.0 | 14.0 | 0.00 | 0.00 | 0.00 | 71 | 1004.2 |
| 20260505023516 | 76 | 158 | 7.0 | 14.0 | 0.00 | 0.00 | 0.00 | 71 | 1004.0 |
| 20260505022516 | 76 | 180 | 6.0 | 17.0 | 0.00 | 0.00 | 0.00 | 71 | 1004.1 |
| 20260505021516 | 76 | 158 | 5.0 | 12.0 | 0.00 | 0.00 | 0.00 | 71 | 1004.0 |
| 20260505020515 | 76 | 158 | 5.0 | 10.0 | 0.00 | 0.00 | 0.00 | 71 | 1004.0 |
| 20260505015536 | 76 | 158 | 4.0 | 10.0 | 0.00 | 0.00 | 0.00 | 71 | 1004.0 |
| 20260505014516 | 76 | 135 | 5.0 | 13.0 | 0.00 | 0.00 | 0.00 | 71 | 1004.0 |
| 20260505013515 | 76 | 180 | 6.0 | 13.0 | 0.00 | 0.00 | 0.00 | 71 | 1004.0 |
| 20260505012515 | 77 | 135 | 4.0 | 10.0 | 0.00 | 0.00 | 0.00 | 70 | 1004.0 |
| 20260505011516 | 77 | 203 | 5.0 | 13.0 | 0.00 | 0.00 | 0.00 | 69 | 1004.0 |
| 20260505010535 | 77 | 158 | 6.0 | 11.0 | 0.00 | 0.00 | 0.00 | 69 | 1004.0 |
| 20260505005536 | 78 | 203 | 5.0 | 11.0 | 0.00 | 0.00 | 0.00 | 68 | 1003.9 |
| 20260505004556 | 78 | 158 | 5.0 | 13.0 | 0.00 | 0.00 | 0.00 | 68 | 1003.9 |
| 20260505003515 | 78 | 180 | 6.0 | 13.0 | 0.00 | 0.00 | 0.00 | 67 | 1003.9 |
| 20260505002536 | 79 | 180 | 5.0 | 12.0 | 0.00 | 0.00 | 0.00 | 67 | 1004.1 |
| 20260505001515 | 79 | 180 | 5.0 | 11.0 | 0.00 | 0.00 | 0.00 | 66 | 1004.2 |
| 20260505000536 | 80 | 158 | 5.0 | 12.0 | 0.00 | 0.00 | 0.00 | 65 | 1004.2 |
| 20260504235515 | 80 | 180 | 6.0 | 14.0 | 0.00 | 0.00 | 0.00 | 64 | 1004.4 |
| 20260504234515 | 80 | 158 | 6.0 | 14.0 | 0.00 | 0.00 | 0.00 | 63 | 1004.3 |
| 20260504233516 | 81 | 158 | 7.0 | 13.0 | 0.00 | 0.00 | 0.00 | 63 | 1004.5 |
| 20260504232535 | 81 | 158 | 7.0 | 12.0 | 0.00 | 0.00 | 0.00 | 63 | 1004.5 |
| 20260504231516 | 81 | 158 | 5.0 | 10.0 | 0.00 | 0.00 | 0.00 | 61 | 1004.4 |
| 20260504230515 | 81 | 158 | 9.0 | 19.0 | 0.00 | 0.00 | 0.00 | 61 | 1004.5 |
| 20260504225515 | 82 | 203 | 9.0 | 21.0 | 0.00 | 0.00 | 0.00 | 60 | 1004.6 |
| 20260504224516 | 83 | 180 | 8.0 | 19.0 | 0.00 | 0.00 | 0.00 | 59 | 1004.9 |
| 20260504223515 | 83 | 203 | 6.0 | 14.0 | 0.00 | 0.00 | 0.00 | 59 | 1004.8 |
| 20260504222516 | 84 | 180 | 7.0 | 12.0 | 0.00 | 0.00 | 0.00 | 59 | 1004.7 |
| 20260504221516 | 83 | 180 | 6.0 | 14.0 | 0.00 | 0.00 | 0.00 | 59 | 1004.8 |
| 20260504220515 | 83 | 203 | 5.0 | 14.0 | 0.00 | 0.00 | 0.00 | 59 | 1005.1 |
| 20260504215515 | 84 | 135 | 7.0 | 15.0 | 0.00 | 0.00 | 0.00 | 58 | 1005.0 |
| 20260504214516 | 84 | 180 | 8.0 | 20.0 | 0.00 | 0.00 | 0.00 | 58 | 1005.1 |
| 20260504213536 | 84 | 158 | 8.0 | 19.0 | 0.00 | 0.00 | 0.00 | 58 | 1005.3 |
| 20260504212516 | 84 | 203 | 7.0 | 16.0 | 0.00 | 0.00 | 0.00 | 58 | 1005.7 |
| 20260504211536 | 85 | 158 | 7.0 | 15.0 | 0.00 | 0.00 | 0.00 | 57 | 1006.0 |
| 20260504210516 | 84 | 158 | 7.0 | 17.0 | 0.00 | 0.00 | 0.00 | 58 | 1006.0 |
| 20260504205515 | 84 | 158 | 7.0 | 17.0 | 0.00 | 0.00 | 0.00 | 58 | 1006.1 |
| 20260504204515 | 84 | 180 | 9.0 | 17.0 | 0.00 | 0.00 | 0.00 | 57 | 1006.4 |
| 20260504204020 | 84 | 180 | 7.0 | 11.0 | 0.00 | 0.00 | 0.00 | 57 | 1006.4 |
| 20260504203515 | 84 | 180 | 7.0 | 16.0 | 0.00 | 0.00 | 0.00 | 58 | 1006.5 |
| 20260504202516 | 83 | 180 | 8.0 | 17.0 | 0.00 | 0.00 | 0.00 | 58 | 1006.7 |
| 20260504201536 | 83 | 158 | 7.0 | 21.0 | 0.00 | 0.00 | 0.00 | 57 | 1006.9 |
| 20260504200515 | 83 | 180 | 6.0 | 13.0 | 0.00 | 0.00 | 0.00 | 59 | 1007.0 |
| 20260504195516 | 83 | 203 | 7.0 | 16.0 | 0.00 | 0.00 | 0.00 | 59 | 1007.5 |
| 20260504194516 | 83 | 158 | 8.0 | 17.0 | 0.00 | 0.00 | 0.00 | 58 | 1007.7 |
| 20260504193516 | 83 | 158 | 9.0 | 18.0 | 0.00 | 0.00 | 0.00 | 57 | 1007.8 |
| 20260504192516 | 83 | 158 | 8.0 | 17.0 | 0.00 | 0.00 | 0.00 | 57 | 1007.9 |
| 20260504191536 | 83 | 180 | 7.0 | 19.0 | 0.00 | 0.00 | 0.00 | 58 | 1008.0 |
| 20260504190515 | 82 | 180 | 6.0 | 14.0 | 0.00 | 0.00 | 0.00 | 58 | 1008.1 |
| 20260504185515 | 82 | 180 | 6.0 | 13.0 | 0.00 | 0.00 | 0.00 | 59 | 1008.4 |
| 20260504184535 | 82 | 158 | 7.0 | 21.0 | 0.00 | 0.00 | 0.00 | 59 | 1008.5 |
| 20260504183535 | 81 | 180 | 7.0 | 15.0 | 0.00 | 0.00 | 0.00 | 60 | 1008.5 |
| 20260504182515 | 81 | 203 | 7.0 | 17.0 | 0.00 | 0.00 | 0.00 | 59 | 1008.7 |
| 20260504181536 | 81 | 180 | 6.0 | 17.0 | 0.00 | 0.00 | 0.00 | 59 | 1008.7 |
| 20260504180515 | 80 | 180 | 7.0 | 18.0 | 0.00 | 0.00 | 0.00 | 59 | 1009.1 |
| 20260504175515 | 80 | 203 | 6.0 | 14.0 | 0.00 | 0.00 | 0.00 | 60 | 1009.0 |
| 20260504174515 | 79 | 180 | 8.0 | 20.0 | 0.00 | 0.00 | 0.00 | 59 | 1009.2 |
| 20260504173516 | 80 | 203 | 7.0 | 20.0 | 0.00 | 0.00 | 0.00 | 60 | 1009.5 |
| 20260504172515 | 79 | 203 | 6.0 | 16.0 | 0.00 | 0.00 | 0.00 | 59 | 1009.7 |
| 20260504171515 | 80 | 158 | 6.0 | 16.0 | 0.00 | 0.00 | 0.00 | 60 | 1009.9 |
| 20260504170516 | 79 | 203 | 7.0 | 15.0 | 0.00 | 0.00 | 0.00 | 60 | 1010.0 |
| 20260504150516 | 73 | 158 | 6.0 | 15.0 | 0.00 | 0.00 | 0.00 | 66 | 1011.0 |
| 20260504140515 | 69 | 180 | 6.0 | 15.0 | 0.00 | 0.00 | 0.00 | 71 | 1011.3 |
| 20260504130516 | 64 | 180 | 5.0 | 13.0 | 0.00 | 0.00 | 0.00 | 77 | 1011.5 |
| 20260504081515 | 64 | 180 | 4.0 | 9.0 | 0.00 | 0.00 | 0.00 | 67 | 1012.1 |
| 20260504080616 | 64 | 158 | 4.0 | 10.0 | 0.00 | 0.00 | 0.00 | 66 | 1012.1 |